EW3591 Weather Reports


time (UTC)temp
C
wind
direction
speed
KPH
gust
KPH
rain 1hr
cm
rain 24hr
cm
rain mn
cm
humidity
%
barometer
mb
20211208143722 -4 0 0.0 1.6 0.00 0.00 0.00 86 1014.2
20211208143522 -4 0 0.0 1.6 0.00 0.00 0.00 86 1014.2
20211208143322 -4 0 0.0 1.6 0.00 0.00 0.00 86 1014.2
20211208143121 -4 313 0.0 1.6 0.00 0.00 0.00 86 1014.2
20211208142921 -4 313 0.0 1.6 0.00 0.00 0.00 86 1014.2
20211208142721 -5 313 0.0 1.6 0.00 0.00 0.00 86 1014.2
20211208142520 -5 313 0.0 1.6 0.00 0.00 0.00 86 1014.2
20211208142320 -5 313 0.0 1.6 0.00 0.00 0.00 86 1014.2
20211208142120 -5 0 0.0 0.0 0.00 0.00 0.00 86 1014.2
20211208141919 -5 0 0.0 0.0 0.00 0.00 0.00 86 1014.2
20211208141719 -5 0 0.0 0.0 0.00 0.00 0.00 86 1014.2
20211208141519 -5 0 0.0 0.0 0.00 0.00 0.00 86 1014.3
20211208141319 -5 0 0.0 0.0 0.00 0.00 0.00 86 1014.2
20211208141118 -5 0 0.0 0.0 0.00 0.00 0.00 86 1014.2
20211208140918 -5 0 0.0 1.6 0.00 0.00 0.00 86 1014.2
20211208140717 -5 0 0.0 1.6 0.00 0.00 0.00 86 1014.3
20211208140517 -5 0 0.0 1.6 0.00 0.00 0.00 86 1014.2
20211208140317 -5 306 0.0 1.6 0.00 0.00 0.00 86 1014.1
20211208140116 -5 302 0.0 1.6 0.00 0.00 0.00 86 1014.2
20211208135916 -5 0 0.0 1.6 0.00 0.00 0.00 87 1014.2
20211208135716 -5 0 0.0 1.6 0.00 0.00 0.00 87 1014.3
20211208135515 -5 302 0.0 1.6 0.00 0.00 0.00 87 1014.3
20211208135315 -5 302 0.0 1.6 0.00 0.00 0.00 87 1014.3
20211208135114 -5 0 0.0 1.6 0.00 0.00 0.00 87 1014.3
20211208134914 -5 0 0.0 1.6 0.00 0.00 0.00 87 1014.3
20211208134714 -5 0 0.0 1.6 0.00 0.00 0.00 87 1014.3
20211208134513 -5 302 0.0 1.6 0.00 0.00 0.00 87 1014.3
20211208134313 -5 0 0.0 1.6 0.00 0.00 0.00 87 1014.3
20211208134113 -5 0 0.0 0.0 0.00 0.00 0.00 87 1014.3
20211208133912 -5 0 0.0 0.0 0.00 0.00 0.00 87 1014.3
20211208133712 -5 0 0.0 0.0 0.00 0.00 0.00 87 1014.3
20211208133512 -5 0 0.0 0.0 0.00 0.00 0.00 87 1014.3
20211208133311 -5 0 0.0 1.6 0.00 0.00 0.00 87 1014.5
20211208133111 -5 0 0.0 1.6 0.00 0.00 0.00 87 1014.5
20211208132911 -5 0 0.0 1.6 0.00 0.00 0.00 87 1014.5
20211208132710 -5 315 0.0 1.6 0.00 0.00 0.00 87 1014.5
20211208132510 -5 315 0.0 1.6 0.00 0.00 0.00 87 1014.5
20211208132310 -5 315 0.0 3.2 0.00 0.00 0.00 87 1014.4
20211208132109 -5 315 0.0 3.2 0.00 0.00 0.00 87 1014.6
20211208131909 -5 315 0.0 3.2 0.00 0.00 0.00 87 1014.7
20211208131709 -5 261 0.0 3.2 0.00 0.00 0.00 87 1014.6
20211208131508 -5 251 0.0 3.2 0.00 0.00 0.00 87 1014.6
20211208131308 -5 249 0.0 3.2 0.00 0.00 0.00 87 1014.7
20211208131108 -5 0 0.0 3.2 0.00 0.00 0.00 87 1014.8
20211208130907 -5 0 0.0 1.6 0.00 0.00 0.00 87 1014.8
20211208130707 -5 0 0.0 1.6 0.00 0.00 0.00 87 1014.8
20211208130507 -5 0 0.0 1.6 0.00 0.00 0.00 87 1014.8
20211208130306 -5 249 0.0 1.6 0.00 0.00 0.00 87 1014.8
20211208130106 -5 0 0.0 3.2 0.00 0.00 0.00 87 1014.7
20211208125906 -5 0 0.0 3.2 0.00 0.00 0.00 87 1014.7
20211208125705 -5 0 0.0 3.2 0.00 0.00 0.00 87 1014.8
20211208125505 -5 249 0.0 3.2 0.00 0.00 0.00 87 1014.8
20211208125306 -6 248 0.0 3.2 0.00 0.00 0.00 87 1014.8
20211208125104 -6 248 0.0 3.2 0.00 0.00 0.00 87 1014.9
20211208124904 -6 248 0.0 3.2 0.00 0.00 0.00 87 1015.0
20211208124704 -6 0 0.0 3.2 0.00 0.00 0.00 87 1015.1
20211208124503 -6 0 0.0 3.2 0.00 0.00 0.00 87 1015.1
20211208124303 -6 0 0.0 3.2 0.00 0.00 0.00 87 1015.2
20211208124103 -6 0 0.0 3.2 0.00 0.00 0.00 87 1015.3
20211208123902 -6 248 0.0 3.2 0.00 0.00 0.00 87 1015.4
20211208123702 -6 0 0.0 3.2 0.00 0.00 0.00 87 1015.4
20211208123502 -6 0 0.0 0.0 0.00 0.00 0.00 87 1015.5
20211208123301 -6 0 0.0 0.0 0.00 0.00 0.00 87 1015.5
20211208123101 -6 0 0.0 0.0 0.00 0.00 0.00 87 1015.6
20211208122900 -6 0 0.0 0.0 0.00 0.00 0.00 87 1015.6
20211208122500 -6 0 0.0 3.2 0.00 0.00 0.00 87 1015.7
20211208122259 -6 0 0.0 3.2 0.00 0.00 0.00 87 1015.7
20211208122059 -6 248 0.0 3.2 0.00 0.00 0.00 87 1015.7
20211208121859 -6 248 0.0 3.2 0.00 0.00 0.00 87 1015.7
20211208121658 -6 0 0.0 0.0 0.00 0.00 0.00 87 1015.7
20211208121458 -6 0 0.0 0.0 0.00 0.00 0.00 87 1015.7
20211208121258 -6 0 0.0 0.0 0.00 0.00 0.00 87 1015.7
20211208121057 -6 0 0.0 3.2 0.00 0.00 0.00 87 1015.8
20211208120857 -6 0 0.0 3.2 0.00 0.00 0.00 87 1015.8
20211208120657 -6 0 0.0 3.2 0.00 0.00 0.00 87 1015.8
20211208120456 -6 248 0.0 3.2 0.00 0.00 0.00 87 1015.9
20211208120256 -6 248 0.0 3.2 0.00 0.00 0.00 87 1016.0
20211208120056 -6 0 0.0 0.0 0.00 0.00 0.00 87 1015.9
20211208115855 -6 0 0.0 1.6 0.00 0.00 0.00 87 1015.9
20211208115655 -6 0 0.0 1.6 0.00 0.00 0.00 87 1016.0
20211208115455 -6 0 0.0 3.2 0.00 0.00 0.00 87 1015.9
20211208115254 -6 248 0.0 3.2 0.00 0.00 0.00 87 1015.8
20211208115054 -6 0 0.0 3.2 0.00 0.00 0.00 87 1015.7
20211208114854 -6 248 0.0 3.2 0.00 0.00 0.00 88 1015.7
20211208114653 -6 248 0.0 3.2 0.00 0.00 0.00 87 1015.7
20211208114453 -6 0 0.0 0.0 0.00 0.00 0.00 87 1015.7
20211208114253 -6 0 0.0 3.2 0.00 0.00 0.00 87 1015.7
20211208114053 -6 0 0.0 3.2 0.00 0.00 0.00 87 1015.7
20211208113852 -6 0 0.0 3.2 0.00 0.00 0.00 87 1015.7
20211208113652 -6 248 0.0 3.2 0.00 0.00 0.00 87 1015.8
20211208113451 -6 0 0.0 0.0 0.00 0.00 0.00 87 1015.8
20211208113251 -6 0 0.0 3.2 0.00 0.00 0.00 87 1015.9
20211208113051 -6 0 0.0 3.2 0.00 0.00 0.00 87 1016.0
20211208112850 -6 0 0.0 3.2 0.00 0.00 0.00 87 1016.1
20211208112650 -6 250 0.0 3.2 0.00 0.00 0.00 87 1016.2
20211208112450 -6 255 0.0 3.2 0.00 0.00 0.00 87 1016.2
20211208112249 -6 263 0.0 3.2 0.00 0.00 0.00 87 1016.3
20211208112049 -6 329 0.0 3.2 0.00 0.00 0.00 87 1016.4
20211208111849 -6 56 0.0 3.2 0.00 0.00 0.00 86 1016.4
20211208111648 -6 56 0.0 3.2 0.00 0.00 0.00 86 1016.4
20211208111448 -6 143 0.0 3.2 0.00 0.00 0.00 86 1016.4
20211208111248 -6 229 0.0 3.2 0.00 0.00 0.00 86 1016.3
20211208111047 -6 0 0.0 3.2 0.00 0.00 0.00 86 1016.3
20211208110847 -6 0 0.0 1.6 0.00 0.00 0.00 86 1016.3
20211208110647 -6 0 0.0 3.2 0.00 0.00 0.00 86 1016.2
20211208110446 -6 254 0.0 3.2 0.00 0.00 0.00 86 1016.2
20211208110246 -6 254 0.0 3.2 0.00 0.00 0.00 86 1016.1
20211208110046 -6 234 0.0 3.2 0.00 0.00 0.00 86 1016.1
20211208105845 -6 234 0.0 3.2 0.00 0.00 0.00 86 1016.1
20211208105645 -6 230 0.0 1.6 0.00 0.00 0.00 86 1016.1
20211208105445 -6 230 0.0 1.6 0.00 0.00 0.00 86 1016.1
20211208105244 -6 0 0.0 0.0 0.00 0.00 0.00 86 1016.2
20211208105044 -6 0 0.0 0.0 0.00 0.00 0.00 86 1016.3
20211208104844 -6 0 0.0 3.2 0.00 0.00 0.00 86 1016.2
20211208104643 -6 0 0.0 3.2 0.00 0.00 0.00 86 1016.3
20211208104443 -6 0 0.0 3.2 0.00 0.00 0.00 86 1016.4
20211208104243 -6 231 0.0 3.2 0.00 0.00 0.00 86 1016.5
20211208104042 -6 229 0.0 3.2 0.00 0.00 0.00 86 1016.4
20211208103842 -6 225 0.0 3.2 0.00 0.00 0.00 86 1016.5
20211208103642 -6 225 0.0 3.2 0.00 0.00 0.00 86 1016.5
20211208103441 -6 237 0.0 3.2 0.00 0.00 0.00 86 1016.5
20211208103241 -6 0 0.0 3.2 0.00 0.00 0.00 86 1016.5
20211208103041 -6 235 0.0 1.6 0.00 0.00 0.00 86 1016.5
20211208102840 -6 210 0.0 1.6 0.00 0.00 0.00 86 1016.5
20211208102640 -6 0 0.0 1.6 0.00 0.00 0.00 86 1016.5
20211208102439 -6 0 0.0 1.6 0.00 0.00 0.00 86 1016.6
20211208102239 -6 0 0.0 1.6 0.00 0.00 0.00 86 1016.6
20211208102039 -6 0 0.0 3.2 0.00 0.00 0.00 86 1016.6
20211208101838 -6 193 0.0 3.2 0.00 0.00 0.00 86 1016.7
20211208101638 -6 216 0.0 3.2 0.00 0.00 0.00 86 1016.7
20211208101438 -6 237 0.0 3.2 0.00 0.00 0.00 86 1016.7
20211208101237 -6 0 0.0 1.6 0.00 0.00 0.00 86 1016.7
20211208101037 -6 0 0.0 3.2 0.00 0.00 0.00 86 1016.7
20211208100837 -6 249 0.0 3.2 0.00 0.00 0.00 86 1016.7
20211208100636 -6 249 0.0 3.2 0.00 0.00 0.00 86 1016.6
20211208100436 -6 291 0.0 3.2 0.00 0.00 0.00 86 1016.6
20211208100236 -6 34 0.0 3.2 0.00 0.00 0.00 86 1016.7
20211208100035 -6 252 0.0 3.2 0.00 0.00 0.00 86 1016.7
20211208095835 -6 252 0.0 3.2 0.00 0.00 0.00 86 1016.8
20211208095635 -6 252 0.0 3.2 0.00 0.00 0.00 86 1016.9
20211208095434 -6 251 0.0 3.2 0.00 0.00 0.00 86 1016.9
20211208095234 -6 246 0.0 3.2 0.00 0.00 0.00 86 1016.9
20211208095034 -6 246 0.0 3.2 0.00 0.00 0.00 86 1016.9
20211208094833 -6 263 0.0 3.2 0.00 0.00 0.00 86 1017.0
20211208094632 -6 0 0.0 3.2 0.00 0.00 0.00 86 1017.0
20211208094432 -6 253 0.0 3.2 0.00 0.00 0.00 86 1016.9
20211208094232 -6 253 0.0 3.2 0.00 0.00 0.00 86 1016.9
20211208094031 -6 253 0.0 3.2 0.00 0.00 0.00 86 1016.9
20211208093831 -6 253 0.0 3.2 0.00 0.00 0.00 86 1016.8
20211208093631 -6 253 0.0 3.2 0.00 0.00 0.00 86 1016.9
20211208093430 -6 252 0.0 3.2 0.00 0.00 0.00 86 1016.9
20211208093230 -6 234 0.0 3.2 0.00 0.00 0.00 85 1016.9
20211208093030 -6 239 0.0 3.2 0.00 0.00 0.00 85 1016.9
20211208092829 -6 251 0.0 3.2 0.00 0.00 0.00 85 1016.9
20211208092629 -6 253 0.0 3.2 0.00 0.00 0.00 85 1016.8
20211208092428 -6 258 0.0 3.2 0.00 0.00 0.00 86 1016.7
20211208092228 -6 0 0.0 3.2 0.00 0.00 0.00 85 1016.8
20211208092028 -6 0 0.0 3.2 0.00 0.00 0.00 85 1016.8
20211208091827 -6 258 0.0 3.2 0.00 0.00 0.00 85 1016.8
20211208091626 -6 258 0.0 3.2 0.00 0.00 0.00 86 1016.9
20211208091426 -6 0 0.0 3.2 0.00 0.00 0.00 86 1016.9
20211208091226 -6 258 0.0 3.2 0.00 0.00 0.00 85 1016.9
20211208091025 -6 258 0.0 3.2 0.00 0.00 0.00 85 1016.9
20211208090825 -6 258 0.0 3.2 0.00 0.00 0.00 85 1016.9
20211208090625 -6 258 0.0 3.2 0.00 0.00 0.00 85 1016.9
20211208090424 -6 258 0.0 3.2 0.00 0.00 0.00 85 1016.9
20211208090224 -6 0 0.0 3.2 0.00 0.00 0.00 85 1016.9
20211208090024 -6 258 0.0 3.2 0.00 0.00 0.00 85 1016.9
20211208085823 -6 266 0.0 3.2 0.00 0.00 0.00 85 1017.0
20211208085623 -6 0 0.0 1.6 0.00 0.00 0.00 85 1016.9
20211208085423 -6 0 0.0 1.6 0.00 0.00 0.00 85 1017.0
20211208085222 -6 0 0.0 1.6 0.00 0.00 0.00 85 1017.0
20211208085022 -6 272 0.0 1.6 0.00 0.00 0.00 84 1017.0
20211208084821 -6 272 0.0 1.6 0.00 0.00 0.00 84 1017.0
20211208084621 -6 272 0.0 1.6 0.00 0.00 0.00 84 1017.1
20211208084420 -6 0 0.0 1.6 0.00 0.00 0.00 84 1017.1
20211208084220 -6 0 0.0 1.6 0.00 0.00 0.00 84 1017.2
20211208084020 -6 0 0.0 1.6 0.00 0.00 0.00 84 1017.4
20211208083818 -6 219 0.0 3.2 0.00 0.00 0.00 84 1017.4
20211208083618 -6 219 0.0 3.2 0.00 0.00 0.00 84 1017.4
20211208083418 -6 0 0.0 3.2 0.00 0.00 0.00 84 1017.4
20211208083217 -6 217 0.0 3.2 0.00 0.00 0.00 84 1017.5
20211208083017 -6 216 0.0 3.2 0.00 0.00 0.00 84 1017.5
20211208082817 -6 216 0.0 3.2 0.00 0.00 0.00 84 1017.5
20211208082616 -6 216 0.0 3.2 0.00 0.00 0.00 84 1017.7
20211208082416 -6 0 0.0 0.0 0.00 0.00 0.00 83 1017.8
20211208082216 -6 0 0.0 0.0 0.00 0.00 0.00 82 1017.8
20211208082015 -6 0 0.0 0.0 0.00 0.00 0.00 82 1017.9
20211208081815 -6 0 0.0 3.2 0.00 0.00 0.00 81 1017.9
20211208081615 -6 0 0.0 3.2 0.00 0.00 0.00 81 1017.9
20211208081414 -6 0 0.0 3.2 0.00 0.00 0.00 80 1018.0
20211208081214 -6 216 0.0 3.2 0.00 0.00 0.00 80 1018.0
20211208081014 -6 216 0.0 3.2 0.00 0.00 0.00 80 1018.0
20211208080813 -6 0 0.0 0.0 0.00 0.00 0.00 80 1018.1
20211208080613 -6 0 0.0 0.0 0.00 0.00 0.00 80 1018.1
20211208080413 -6 0 0.0 0.0 0.00 0.00 0.00 80 1018.2
20211208080212 -6 0 0.0 0.0 0.00 0.00 0.00 80 1018.1
20211208080012 -6 0 0.0 0.0 0.00 0.00 0.00 80 1018.2
20211208075811 -6 0 0.0 0.0 0.00 0.00 0.00 80 1018.4
20211208075611 -6 0 0.0 0.0 0.00 0.00 0.00 79 1018.4
20211208075411 -6 0 0.0 0.0 0.00 0.00 0.00 79 1018.5
20211208075211 -6 0 0.0 0.0 0.00 0.00 0.00 79 1018.6
20211208075010 -6 0 0.0 0.0 0.00 0.00 0.00 78 1018.5
20211208074810 -6 0 0.0 1.6 0.00 0.00 0.00 77 1018.5
20211208074610 -6 0 0.0 3.2 0.00 0.00 0.00 77 1018.5
20211208074409 -6 0 0.0 4.8 0.00 0.00 0.00 76 1018.5
20211208074209 -6 216 0.0 4.8 0.00 0.00 0.00 76 1018.5
20211208074009 -6 218 0.0 4.8 0.00 0.00 0.00 76 1018.5
20211208073808 -6 199 0.0 4.8 0.00 0.00 0.00 76 1018.4
20211208073608 -6 132 0.0 3.2 0.00 0.00 0.00 76 1018.4
20211208073407 -6 0 0.0 3.2 0.00 0.00 0.00 75 1018.4
20211208073007 -6 124 0.0 3.2 0.00 0.00 0.00 74 1018.4
20211208072806 -6 111 0.0 3.2 0.00 0.00 0.00 74 1018.3
20211208072606 -6 103 0.0 1.6 0.00 0.00 0.00 74 1018.3
20211208072406 -6 0 0.0 1.6 0.00 0.00 0.00 74 1018.2
20211208072205 -6 102 0.0 3.2 0.00 0.00 0.00 73 1018.2
20211208072005 -6 111 0.0 3.2 0.00 0.00 0.00 73 1018.2
20211208071805 -6 134 0.0 3.2 0.00 0.00 0.00 73 1018.2
20211208071604 -6 114 0.0 3.2 0.00 0.00 0.00 74 1018.4
20211208071404 -6 106 0.0 3.2 0.00 0.00 0.00 73 1018.3
20211208071204 -6 41 0.0 3.2 0.00 0.00 0.00 73 1018.3
20211208071003 -6 41 0.0 3.2 0.00 0.00 0.00 72 1018.3
20211208070802 -6 41 0.0 1.6 0.00 0.00 0.00 72 1018.3
20211208070602 -6 0 0.0 0.0 0.00 0.00 0.00 72 1018.2
20211208070402 -6 0 0.0 0.0 0.00 0.00 0.00 72 1018.2
20211208070201 -6 0 0.0 0.0 0.00 0.00 0.00 72 1018.2
20211208070001 -6 0 0.0 0.0 0.00 0.00 0.00 72 1018.1
20211208065801 -6 0 0.0 0.0 0.00 0.00 0.00 72 1018.0
20211208065600 -6 0 0.0 0.0 0.00 0.00 0.00 72 1018.1
20211208065400 -6 0 0.0 3.2 0.00 0.00 0.00 71 1018.1
20211208065200 -6 0 0.0 3.2 0.00 0.00 0.00 72 1018.1
20211208064959 -6 0 0.0 3.2 0.00 0.00 0.00 71 1018.0
20211208064759 -6 0 0.0 3.2 0.00 0.00 0.00 71 1018.0
20211208064559 -6 41 0.0 3.2 0.00 0.00 0.00 71 1017.9
20211208064358 -6 0 0.0 3.2 0.00 0.00 0.00 72 1018.1
20211208064158 -6 0 0.0 3.2 0.00 0.00 0.00 71 1018.1
20211208063958 -6 0 0.0 3.2 0.00 0.00 0.00 72 1018.1
20211208063757 -6 41 0.0 3.2 0.00 0.00 0.00 72 1018.0
20211208063557 -6 41 0.0 3.2 0.00 0.00 0.00 72 1018.0
20211208063357 -6 0 0.0 0.0 0.00 0.00 0.00 72 1018.0
20211208063156 -6 0 0.0 0.0 0.00 0.00 0.00 72 1018.0
20211208062956 -6 0 0.0 0.0 0.00 0.00 0.00 72 1018.0
20211208062755 -6 0 0.0 1.6 0.00 0.00 0.00 73 1018.0
20211208062555 -6 0 0.0 3.2 0.00 0.00 0.00 73 1018.2
20211208062355 -6 0 0.0 3.2 0.00 0.00 0.00 73 1018.0
20211208062154 -6 41 0.0 3.2 0.00 0.00 0.00 73 1018.1
20211208061954 -6 41 0.0 3.2 0.00 0.00 0.00 73 1018.1
20211208061754 -6 41 0.0 3.2 0.00 0.00 0.00 72 1018.1
20211208061553 -6 41 0.0 3.2 0.00 0.00 0.00 73 1018.2
20211208061353 -6 0 0.0 0.0 0.00 0.00 0.00 72 1018.2
20211208061153 -6 0 0.0 0.0 0.00 0.00 0.00 72 1018.2
20211208060952 -6 0 0.0 0.0 0.00 0.00 0.00 72 1018.2
20211208060752 -6 0 0.0 0.0 0.00 0.00 0.00 72 1018.2
20211208060551 -6 0 0.0 0.0 0.00 0.00 0.00 73 1018.2
20211208060351 -6 0 0.0 3.2 0.00 0.00 0.00 73 1018.1
20211208060151 -6 0 0.0 3.2 0.00 0.00 0.00 73 1018.1
20211208055951 -6 0 0.0 3.2 0.00 0.00 0.00 73 1018.1
20211208055750 -6 41 0.0 3.2 0.00 0.00 0.00 73 1018.2
20211208055550 -6 41 0.0 3.2 0.00 0.00 0.00 73 1018.2
20211208055350 -6 28 0.0 3.2 0.00 0.00 0.00 72 1018.2
20211208055149 -6 19 0.0 3.2 0.00 0.00 0.00 73 1018.2
20211208054949 -6 356 0.0 3.2 0.00 0.00 0.00 74 1018.2
20211208054748 -6 355 0.0 3.2 0.00 0.00 0.00 74 1018.2
20211208054548 -6 355 0.0 3.2 0.00 0.00 0.00 74 1018.1
20211208054348 -6 0 0.0 0.0 0.00 0.00 0.00 74 1018.2
20211208054148 -6 0 0.0 0.0 0.00 0.00 0.00 74 1018.2
20211208053947 -6 0 0.0 0.0 0.00 0.00 0.00 74 1018.2
20211208053747 -6 0 0.0 0.0 0.00 0.00 0.00 74 1018.2
20211208053546 -6 0 0.0 0.0 0.00 0.00 0.00 74 1018.2
20211208053346 -6 0 0.0 0.0 0.00 0.00 0.00 74 1018.3
20211208053146 -6 0 0.0 3.2 0.00 0.00 0.00 74 1018.4
20211208052945 -6 0 0.0 3.2 0.00 0.00 0.00 74 1018.4
20211208052745 -6 0 0.0 3.2 0.00 0.00 0.00 74 1018.4
20211208052545 -6 353 0.0 3.2 0.00 0.00 0.00 74 1018.4
20211208052344 -6 353 0.0 3.2 0.00 0.00 0.00 74 1018.5
20211208052144 -6 353 0.0 3.2 0.00 0.00 0.00 74 1018.5
20211208051944 -6 353 0.0 3.2 0.00 0.00 0.00 74 1018.6
20211208051743 -6 0 0.0 3.2 0.00 0.00 0.00 74 1018.5
20211208051543 -6 0 0.0 3.2 0.00 0.00 0.00 74 1018.6
20211208051343 -6 0 0.0 3.2 0.00 0.00 0.00 74 1018.6
20211208051143 -6 353 0.0 3.2 0.00 0.00 0.00 73 1018.6
20211208050942 -6 353 0.0 3.2 0.00 0.00 0.00 74 1018.7
20211208050742 -6 15 0.0 3.2 0.00 0.00 0.00 74 1018.6
20211208050541 -6 25 0.0 3.2 0.00 0.00 0.00 74 1018.7
20211208050341 -6 20 0.0 3.2 0.00 0.00 0.00 74 1018.6
20211208050141 -6 16 0.0 3.2 0.00 0.00 0.00 74 1018.6
20211208045941 -6 0 0.0 3.2 0.00 0.00 0.00 74 1018.6
20211208045740 -6 19 0.0 3.2 0.00 0.00 0.00 74 1018.6
20211208045540 -6 40 0.0 3.2 0.00 0.00 0.00 74 1018.6
20211208045340 -6 86 0.0 3.2 0.00 0.00 0.00 74 1018.6
20211208045139 -6 89 0.0 3.2 0.00 0.00 0.00 74 1018.7
20211208044939 -6 38 0.0 3.2 0.00 0.00 0.00 75 1018.7
20211208044738 -6 61 0.0 3.2 0.00 0.00 0.00 75 1018.7
20211208044538 -7 81 0.0 3.2 0.00 0.00 0.00 75 1018.8
20211208044338 -7 79 0.0 3.2 0.00 0.00 0.00 75 1018.9
20211208044138 -7 32 0.0 3.2 0.00 0.00 0.00 75 1019.0
20211208043937 -7 95 0.0 3.2 0.00 0.00 0.00 75 1019.0
20211208043737 -7 61 0.0 3.2 0.00 0.00 0.00 75 1019.2
20211208043536 -7 32 0.0 3.2 0.00 0.00 0.00 75 1019.2
20211208043336 -7 30 0.0 3.2 0.00 0.00 0.00 75 1019.3
20211208043136 -7 0 0.0 0.0 0.00 0.00 0.00 75 1019.3
20211208042935 -7 0 0.0 1.6 0.00 0.00 0.00 75 1019.3
20211208042735 -7 0 0.0 1.6 0.00 0.00 0.00 75 1019.4
20211208042535 -7 0 0.0 1.6 0.00 0.00 0.00 75 1019.4
20211208042334 -7 294 0.0 1.6 0.00 0.00 0.00 75 1019.3
20211208042134 -7 294 0.0 1.6 0.00 0.00 0.00 75 1019.3
20211208041934 -7 0 0.0 0.0 0.00 0.00 0.00 75 1019.4
20211208041733 -7 0 0.0 0.0 0.00 0.00 0.00 75 1019.4
20211208041533 -7 0 0.0 0.0 0.00 0.00 0.00 75 1019.5
20211208041333 -7 0 0.0 0.0 0.00 0.00 0.00 74 1019.6
20211208041132 -7 0 0.0 0.0 0.00 0.00 0.00 75 1019.6
20211208040932 -7 0 0.0 3.2 0.00 0.00 0.00 74 1019.6
20211208040732 -7 0 0.0 3.2 0.00 0.00 0.00 74 1019.7
20211208040531 -7 0 0.0 3.2 0.00 0.00 0.00 74 1019.6
20211208040331 -7 0 0.0 3.2 0.00 0.00 0.00 74 1019.6
20211208040131 -7 49 0.0 3.2 0.00 0.00 0.00 74 1019.6
20211208035930 -7 0 0.0 3.2 0.00 0.00 0.00 75 1019.6
20211208035730 -7 0 0.0 3.2 0.00 0.00 0.00 75 1019.6
20211208035530 -7 55 0.0 3.2 0.00 0.00 0.00 75 1019.5
20211208035330 -7 55 0.0 3.2 0.00 0.00 0.00 75 1019.6
20211208035129 -7 68 0.0 3.2 0.00 0.00 0.00 75 1019.5
20211208034929 -7 68 0.0 3.2 0.00 0.00 0.00 74 1019.5
20211208034728 -7 80 0.0 3.2 0.00 0.00 0.00 75 1019.5
20211208034528 -7 90 0.0 3.2 0.00 0.00 0.00 75 1019.6
20211208034328 -7 103 0.0 3.2 0.00 0.00 0.00 75 1019.7
20211208034128 -7 0 0.0 3.2 0.00 0.00 0.00 75 1019.6
20211208033927 -7 0 0.0 3.2 0.00 0.00 0.00 75 1019.7
20211208033727 -7 103 0.0 3.2 0.00 0.00 0.00 75 1019.8
20211208033526 -7 103 0.0 3.2 0.00 0.00 0.00 75 1019.7
20211208033326 -7 0 0.0 3.2 0.00 0.00 0.00 75 1019.7
20211208033126 -7 103 0.0 3.2 0.00 0.00 0.00 75 1019.8
20211208032925 -7 103 0.0 3.2 0.00 0.00 0.00 76 1019.7
20211208032525 -7 57 0.0 3.2 0.00 0.00 0.00 76 1019.8
20211208032324 -7 78 0.0 3.2 0.00 0.00 0.00 76 1019.9
20211208032124 -7 39 0.0 3.2 0.00 0.00 0.00 76 1019.8
20211208031924 -7 15 0.0 3.2 0.00 0.00 0.00 76 1019.8
20211208031723 -7 4 0.0 3.2 0.00 0.00 0.00 76 1019.8
20211208031523 -7 337 0.0 3.2 0.00 0.00 0.00 77 1019.8
20211208031323 -7 332 0.0 3.2 0.00 0.00 0.00 76 1019.7
20211208031122 -7 360 0.0 3.2 0.00 0.00 0.00 77 1019.8
20211208030922 -7 20 0.0 3.2 0.00 0.00 0.00 77 1019.9
20211208030722 -7 213 0.0 1.6 0.00 0.00 0.00 77 1019.9
20211208030521 -7 0 0.0 0.0 0.00 0.00 0.00 77 1020.0
20211208030321 -7 0 0.0 0.0 0.00 0.00 0.00 76 1020.1
20211208030121 -7 0 0.0 1.6 0.00 0.00 0.00 76 1020.1
20211208025920 -7 0 0.0 1.6 0.00 0.00 0.00 76 1020.1
20211208025720 -7 0 0.0 1.6 0.00 0.00 0.00 76 1020.1
20211208025519 -7 213 0.0 1.6 0.00 0.00 0.00 76 1020.1
20211208025319 -7 213 0.0 1.6 0.00 0.00 0.00 76 1020.2
20211208025119 -7 0 0.0 1.6 0.00 0.00 0.00 76 1020.2
20211208024919 -7 213 0.0 1.6 0.00 0.00 0.00 76 1020.2
20211208024718 -7 213 0.0 1.6 0.00 0.00 0.00 76 1020.1
20211208024518 -7 213 0.0 1.6 0.00 0.00 0.00 76 1020.1
20211208024318 -7 213 0.0 1.6 0.00 0.00 0.00 76 1020.1
20211208024117 -7 202 0.0 1.6 0.00 0.00 0.00 76 1020.1
20211208023917 -7 200 0.0 1.6 0.00 0.00 0.00 76 1020.1
20211208023716 -7 198 0.0 1.6 0.00 0.00 0.00 76 1020.1
20211208023516 -7 179 0.0 3.2 0.00 0.00 0.00 76 1020.0
20211208023316 -7 156 0.0 3.2 0.00 0.00 0.00 76 1020.0
20211208022915 -7 113 0.0 3.2 0.00 0.00 0.00 76 1020.0
20211208022715 -7 109 0.0 3.2 0.00 0.00 0.00 76 1020.0
20211208022515 -7 126 0.0 3.2 0.00 0.00 0.00 76 1020.1
20211208022314 -7 127 0.0 3.2 0.00 0.00 0.00 76 1020.2
20211208022114 -7 0 0.0 3.2 0.00 0.00 0.00 76 1020.3
20211208021914 -7 95 0.0 3.2 0.00 0.00 0.00 76 1020.3
20211208021712 -7 69 0.0 3.2 0.00 0.00 0.00 76 1020.4
20211208021512 -7 10 0.0 3.2 0.00 0.00 0.00 76 1020.5
20211208021312 -7 347 0.0 3.2 0.00 0.00 0.00 76 1020.5
20211208021112 -7 153 0.0 6.4 0.00 0.00 0.00 76 1020.5
20211208020911 -6 96 0.0 6.4 0.00 0.00 0.00 76 1020.5
20211208020711 -6 85 0.0 6.4 0.00 0.00 0.00 76 1020.5
20211208020510 -6 63 1.6 6.4 0.00 0.00 0.00 76 1020.5
20211208020310 -6 93 1.6 6.4 0.00 0.00 0.00 76 1020.5
20211208020110 -6 133 1.6 6.4 0.00 0.00 0.00 77 1020.5
20211208015909 -6 144 1.6 4.8 0.00 0.00 0.00 77 1020.6
20211208015709 -7 117 0.0 3.2 0.00 0.00 0.00 77 1020.6
20211208015509 -6 150 0.0 3.2 0.00 0.00 0.00 77 1020.6
20211208015308 -7 217 0.0 3.2 0.00 0.00 0.00 77 1020.6
20211208015108 -7 219 0.0 3.2 0.00 0.00 0.00 78 1020.6
20211208014908 -7 177 0.0 3.2 0.00 0.00 0.00 77 1020.6
20211208014707 -6 135 0.0 3.2 0.00 0.00 0.00 78 1020.5
20211208014507 -6 84 0.0 3.2 0.00 0.00 0.00 78 1020.5
20211208014307 -6 71 0.0 3.2 0.00 0.00 0.00 78 1020.5
20211208014106 -6 99 0.0 3.2 0.00 0.00 0.00 78 1020.5
20211208013906 -6 176 0.0 3.2 0.00 0.00 0.00 78 1020.5
20211208013706 -6 148 0.0 3.2 0.00 0.00 0.00 78 1020.6
20211208013505 -6 75 0.0 3.2 0.00 0.00 0.00 78 1020.6
20211208013305 -6 42 0.0 3.2 0.00 0.00 0.00 78 1020.6
20211208013105 -6 1 0.0 3.2 0.00 0.00 0.00 78 1020.6
20211208012904 -6 337 0.0 3.2 0.00 0.00 0.00 78 1020.7
20211208012703 -6 241 0.0 3.2 0.00 0.00 0.00 78 1020.7
20211208012503 -7 242 0.0 3.2 0.00 0.00 0.00 78 1020.7
20211208012305 -6 242 0.0 3.2 0.00 0.00 0.00 78 1020.6
20211208012102 -7 219 0.0 3.2 0.00 0.00 0.00 78 1020.5
20211208011902 -7 203 0.0 3.2 0.00 0.00 0.00 79 1020.5
20211208011701 -7 203 0.0 3.2 0.00 0.00 0.00 79 1020.5
20211208011500 -7 246 0.0 3.2 0.00 0.00 0.00 79 1020.5
20211208011300 -7 246 0.0 3.2 0.00 0.00 0.00 79 1020.5
20211208011100 -7 160 0.0 3.2 0.00 0.00 0.00 79 1020.5
20211208010859 -7 160 0.0 1.6 0.00 0.00 0.00 79 1020.5
20211208010659 -7 160 0.0 1.6 0.00 0.00 0.00 79 1020.4
20211208010459 -7 161 0.0 1.6 0.00 0.00 0.00 79 1020.5
20211208010258 -7 165 0.0 1.6 0.00 0.00 0.00 79 1020.4
20211208010058 -7 0 0.0 0.0 0.00 0.00 0.00 79 1020.3
20211208005858 -6 0 0.0 0.0 0.00 0.00 0.00 78 1020.3
20211208005657 -6 0 0.0 1.6 0.00 0.00 0.00 79 1020.3
20211208005456 -6 0 0.0 1.6 0.00 0.00 0.00 78 1020.2
20211208005256 -6 0 0.0 1.6 0.00 0.00 0.00 78 1020.1
20211208005056 -6 168 0.0 3.2 0.00 0.00 0.00 77 1020.0
20211208004855 -6 0 0.0 3.2 0.00 0.00 0.00 77 1020.1
20211208004655 -6 0 0.0 3.2 0.00 0.00 0.00 77 1020.2
20211208004455 -6 138 0.0 3.2 0.00 0.00 0.00 76 1020.2
20211208004254 -6 137 0.0 3.2 0.00 0.00 0.00 77 1020.3
20211208004054 -6 213 0.0 3.2 0.00 0.00 0.00 77 1020.4
20211208003854 -6 180 1.6 3.2 0.00 0.00 0.00 76 1020.5
20211208003652 -6 185 1.6 3.2 0.00 0.00 0.00 76 1020.4
20211208003452 -6 226 0.0 3.2 0.00 0.00 0.00 76 1020.4
20211208003252 -6 222 0.0 3.2 0.00 0.00 0.00 76 1020.5
20211208003052 -6 216 0.0 3.2 0.00 0.00 0.00 75 1020.5
20211208002851 -6 205 0.0 3.2 0.00 0.00 0.00 75 1020.5
20211208002651 -6 171 0.0 3.2 0.00 0.00 0.00 75 1020.5
20211208002451 -6 214 0.0 3.2 0.00 0.00 0.00 75 1020.6
20211208002250 -6 259 0.0 3.2 0.00 0.00 0.00 75 1020.6
20211208002050 -6 261 0.0 3.2 0.00 0.00 0.00 75 1020.6
20211208001850 -6 265 0.0 4.8 0.00 0.00 0.00 75 1020.8
20211208001648 -6 255 0.0 4.8 0.00 0.00 0.00 75 1020.7
20211208001448 -6 132 0.0 4.8 0.00 0.00 0.00 75 1020.7
20211208001248 -6 184 0.0 4.8 0.00 0.00 0.00 75 1020.8
20211208001047 -6 163 1.6 4.8 0.00 0.00 0.00 75 1020.8
20211208000847 -6 84 0.0 4.8 0.00 0.00 0.00 75 1020.8
20211208000647 -6 242 0.0 3.2 0.00 0.00 0.00 75 1020.8
20211208000446 -6 260 0.0 3.2 0.00 0.00 0.00 75 1020.7
20211208000248 -6 244 0.0 3.2 0.00 0.00 0.00 75 1020.7
20211208000046 -6 165 0.0 3.2 0.00 0.00 0.00 75 1020.6
20211207235845 -6 157 0.0 3.2 0.00 0.00 0.00 75 1020.5
20211207235645 -6 133 0.0 3.2 0.00 0.00 0.00 75 1020.4
20211207235445 -6 155 0.0 4.8 0.00 0.00 0.00 75 1020.5
20211207235244 -6 227 0.0 4.8 0.00 0.00 0.00 75 1020.4
20211207235044 -6 231 0.0 4.8 0.00 0.00 0.00 75 1020.3
20211207234844 -5 204 0.0 4.8 0.00 0.00 0.00 75 1020.4
20211207234643 -5 198 0.0 4.8 0.00 0.00 0.00 74 1020.3
20211207234443 -5 232 0.0 3.2 0.00 0.00 0.00 74 1020.3
20211207234243 -5 235 0.0 6.4 0.00 0.00 0.00 74 1020.2
20211207234042 -5 177 0.0 6.4 0.00 0.00 0.00 74 1020.2
20211207233842 -5 201 0.0 6.4 0.00 0.00 0.00 74 1020.1
20211207233641 -5 119 0.0 6.4 0.00 0.00 0.00 74 1020.2
20211207233440 -5 114 0.0 6.4 0.00 0.00 0.00 74 1020.3
20211207233240 -5 111 0.0 3.2 0.00 0.00 0.00 74 1020.3
20211207233040 -5 63 0.0 3.2 0.00 0.00 0.00 74 1020.3
20211207232839 -5 63 0.0 3.2 0.00 0.00 0.00 74 1020.3
20211207232639 -5 344 0.0 3.2 0.00 0.00 0.00 73 1020.4
20211207232438 -5 342 0.0 3.2 0.00 0.00 0.00 73 1020.4
20211207232238 -5 4 0.0 3.2 0.00 0.00 0.00 73 1020.5
20211207232038 -5 92 0.0 6.4 0.00 0.00 0.00 73 1020.5
20211207231838 -5 126 0.0 6.4 0.00 0.00 0.00 73 1020.5
20211207231636 -5 110 0.0 6.4 0.00 0.00 0.00 73 1020.6
20211207231436 -5 202 0.0 6.4 0.00 0.00 0.00 73 1020.5
20211207231236 -5 135 1.6 6.4 0.00 0.00 0.00 73 1020.5
20211207231035 -5 136 0.0 6.4 0.00 0.00 0.00 73 1020.4
20211207230835 -5 215 0.0 4.8 0.00 0.00 0.00 72 1020.5
20211207230635 -5 196 0.0 4.8 0.00 0.00 0.00 72 1020.4
20211207230434 -5 185 0.0 4.8 0.00 0.00 0.00 72 1020.4
20211207230234 -5 103 0.0 4.8 0.00 0.00 0.00 72 1020.5
20211207230034 -5 179 0.0 4.8 0.00 0.00 0.00 72 1020.6
20211207225833 -5 125 0.0 3.2 0.00 0.00 0.00 72 1020.6
20211207225633 -5 196 1.6 3.2 0.00 0.00 0.00 72 1020.7
20211207225433 -5 176 1.6 6.4 0.00 0.00 0.00 72 1020.8
20211207225232 -5 153 1.6 6.4 0.00 0.00 0.00 72 1020.8
20211207225032 -5 173 0.0 6.4 0.00 0.00 0.00 72 1020.7
20211207224832 -5 154 0.0 6.4 0.00 0.00 0.00 72 1020.7
20211207224631 -5 198 1.6 6.4 0.00 0.00 0.00 72 1020.7
20211207224431 -5 179 0.0 3.2 0.00 0.00 0.00 72 1020.6
20211207224231 -5 122 0.0 3.2 0.00 0.00 0.00 72 1020.6
20211207224030 -5 75 0.0 3.2 0.00 0.00 0.00 72 1020.6
20211207223830 -5 38 0.0 3.2 0.00 0.00 0.00 72 1020.7
20211207223630 -5 345 0.0 3.2 0.00 0.00 0.00 72 1020.7
20211207223429 -5 304 0.0 3.2 0.00 0.00 0.00 72 1020.7
20211207223229 -5 278 0.0 3.2 0.00 0.00 0.00 72 1020.6
20211207223029 -5 336 0.0 3.2 0.00 0.00 0.00 72 1020.6
20211207222828 -5 50 0.0 8.0 0.00 0.00 0.00 71 1020.5
20211207222628 -5 108 0.0 8.0 0.00 0.00 0.00 72 1020.6
20211207222428 -5 74 0.0 8.0 0.00 0.00 0.00 72 1020.6
20211207222227 -4 29 0.0 8.0 0.00 0.00 0.00 71 1020.5
20211207222027 -4 221 1.6 4.8 0.00 0.00 0.00 71 1020.4
20211207221827 -4 171 0.0 4.8 0.00 0.00 0.00 71 1020.5
20211207221626 -4 211 0.0 3.2 0.00 0.00 0.00 71 1020.5
20211207221426 -4 196 1.6 3.2 0.00 0.00 0.00 71 1020.5
20211207221226 -4 183 0.0 3.2 0.00 0.00 0.00 71 1020.6
20211207221025 -4 132 0.0 3.2 0.00 0.00 0.00 71 1020.5
20211207220825 -4 240 0.0 4.8 0.00 0.00 0.00 71 1020.6
20211207220625 -4 224 0.0 9.7 0.00 0.00 0.00 71 1020.6
20211207220424 -4 147 0.0 9.7 0.00 0.00 0.00 71 1020.6
20211207220224 -4 185 1.6 9.7 0.00 0.00 0.00 70 1020.7
20211207220024 -4 149 1.6 14.5 0.00 0.00 0.00 70 1020.8
20211207215823 -4 161 1.6 14.5 0.00 0.00 0.00 70 1021.0
20211207215623 -4 155 1.6 14.5 0.00 0.00 0.00 70 1021.0
20211207215423 -4 135 3.2 14.5 0.00 0.00 0.00 70 1021.0
20211207215222 -4 162 1.6 14.5 0.00 0.00 0.00 70 1020.9
20211207215022 -4 155 1.6 14.5 0.00 0.00 0.00 70 1020.8
20211207214822 -4 217 1.6 14.5 0.00 0.00 0.00 70 1020.8
20211207214621 -3 223 1.6 14.5 0.00 0.00 0.00 70 1020.7
20211207214421 -3 132 3.2 14.5 0.00 0.00 0.00 70 1020.8
20211207214221 -3 148 1.6 9.7 0.00 0.00 0.00 70 1020.8
20211207214020 -3 228 3.2 9.7 0.00 0.00 0.00 70 1020.8
20211207213820 -3 265 1.6 12.9 0.00 0.00 0.00 71 1020.8
20211207213619 -3 260 1.6 12.9 0.00 0.00 0.00 70 1020.8
20211207213419 -3 211 3.2 12.9 0.00 0.00 0.00 70 1021.0
20211207213219 -3 161 4.8 12.9 0.00 0.00 0.00 70 1020.9
20211207213019 -3 96 3.2 12.9 0.00 0.00 0.00 71 1020.9
20211207212818 -3 225 1.6 9.7 0.00 0.00 0.00 70 1020.9
20211207212618 -3 134 1.6 12.9 0.00 0.00 0.00 70 1020.9
20211207212417 -3 227 3.2 12.9 0.00 0.00 0.00 71 1020.9
20211207212217 -3 159 3.2 12.9 0.00 0.00 0.00 70 1020.9
20211207212017 -3 103 1.6 12.9 0.00 0.00 0.00 71 1020.9
20211207211817 -3 71 3.2 12.9 0.00 0.00 0.00 70 1020.8
20211207211616 -3 128 1.6 8.0 0.00 0.00 0.00 70 1020.8
20211207211416 -3 192 1.6 8.0 0.00 0.00 0.00 71 1020.8
20211207211216 -3 152 3.2 8.0 0.00 0.00 0.00 70 1020.8
20211207211015 -3 187 3.2 8.0 0.00 0.00 0.00 70 1020.7
20211207210815 -3 200 1.6 6.4 0.00 0.00 0.00 70 1020.6
20211207210614 -3 124 1.6 9.7 0.00 0.00 0.00 71 1020.4
20211207210414 -3 139 1.6 9.7 0.00 0.00 0.00 71 1020.4
20211207210214 -3 167 1.6 9.7 0.00 0.00 0.00 70 1020.4
20211207210013 -3 150 3.2 9.7 0.00 0.00 0.00 70 1020.5
20211207205813 -3 165 3.2 12.9 0.00 0.00 0.00 70 1020.5
20211207205613 -3 140 1.6 12.9 0.00 0.00 0.00 70 1020.3
20211207205412 -3 112 1.6 12.9 0.00 0.00 0.00 69 1020.3
20211207205212 -3 151 1.6 12.9 0.00 0.00 0.00 68 1020.2
20211207205012 -3 246 3.2 12.9 0.00 0.00 0.00 68 1020.2
20211207204811 -3 176 1.6 11.3 0.00 0.00 0.00 68 1020.1
20211207204611 -3 192 3.2 11.3 0.00 0.00 0.00 68 1020.1
20211207204411 -3 193 1.6 9.7 0.00 0.00 0.00 68 1020.2
20211207204210 -3 117 1.6 8.0 0.00 0.00 0.00 68 1020.1
20211207204010 -3 123 1.6 11.3 0.00 0.00 0.00 68 1020.1
20211207203810 -3 183 1.6 11.3 0.00 0.00 0.00 68 1020.2
20211207203609 -3 182 1.6 11.3 0.00 0.00 0.00 68 1020.2
20211207203409 -3 159 1.6 12.9 0.00 0.00 0.00 68 1020.2
20211207203209 -3 164 1.6 12.9 0.00 0.00 0.00 68 1020.3
20211207203008 -3 195 3.2 12.9 0.00 0.00 0.00 67 1020.1
20211207202808 -3 194 3.2 12.9 0.00 0.00 0.00 67 1020.2
20211207202607 -3 228 3.2 12.9 0.00 0.00 0.00 67 1020.2
20211207202407 -3 231 3.2 11.3 0.00 0.00 0.00 67 1020.2
20211207202207 -3 230 3.2 11.3 0.00 0.00 0.00 68 1020.1
20211207202007 -3 141 1.6 9.7 0.00 0.00 0.00 69 1020.1
20211207201807 -3 218 1.6 9.7 0.00 0.00 0.00 68 1020.2
20211207201606 -3 247 1.6 9.7 0.00 0.00 0.00 68 1020.2
20211207201406 -3 146 3.2 9.7 0.00 0.00 0.00 68 1020.2
20211207201205 -3 152 1.6 8.0 0.00 0.00 0.00 68 1020.1
20211207201005 -3 141 1.6 14.5 0.00 0.00 0.00 69 1020.1
20211207200805 -3 87 1.6 14.5 0.00 0.00 0.00 69 1020.1
20211207200604 -3 118 3.2 14.5 0.00 0.00 0.00 69 1020.3
20211207200404 -3 138 1.6 14.5 0.00 0.00 0.00 69 1020.4
20211207200204 -3 193 1.6 12.9 0.00 0.00 0.00 70 1020.4
20211207200003 -3 183 3.2 14.5 0.00 0.00 0.00 69 1020.4
20211207195803 -3 173 1.6 14.5 0.00 0.00 0.00 69 1020.4
20211207195602 -3 164 4.8 14.5 0.00 0.00 0.00 70 1020.4
20211207195402 -3 178 4.8 14.5 0.00 0.00 0.00 69 1020.3
20211207195202 -3 216 1.6 11.3 0.00 0.00 0.00 69 1020.3
20211207195002 -3 143 1.6 11.3 0.00 0.00 0.00 69 1020.3
20211207194801 -3 245 1.6 11.3 0.00 0.00 0.00 69 1020.3
20211207194601 -3 111 3.2 11.3 0.00 0.00 0.00 69 1020.3
20211207194401 -3 136 3.2 11.3 0.00 0.00 0.00 69 1020.2
20211207194200 -3 178 3.2 12.9 0.00 0.00 0.00 68 1020.2
20211207194000 -3 190 3.2 12.9 0.00 0.00 0.00 68 1020.3
20211207193800 -3 182 1.6 12.9 0.00 0.00 0.00 68 1020.3
20211207193559 -3 171 3.2 12.9 0.00 0.00 0.00 69 1020.1
20211207193359 -3 189 3.2 12.9 0.00 0.00 0.00 68 1020.1
20211207193158 -3 231 1.6 12.9 0.00 0.00 0.00 69 1020.1
20211207192958 -3 172 3.2 9.7 0.00 0.00 0.00 69 1020.1
20211207192758 -3 141 1.6 14.5 0.00 0.00 0.00 69 1020.1
20211207192557 -3 171 1.6 14.5 0.00 0.00 0.00 70 1020.2
20211207192357 -3 205 3.2 14.5 0.00 0.00 0.00 69 1020.2
20211207192157 -3 167 3.2 14.5 0.00 0.00 0.00 69 1020.2
20211207191957 -3 200 6.4 14.5 0.00 0.00 0.00 68 1020.2
20211207191756 -3 188 4.8 12.9 0.00 0.00 0.00 68 1020.3
20211207191556 -3 177 3.2 12.9 0.00 0.00 0.00 68 1020.3
20211207191356 -3 173 3.2 12.9 0.00 0.00 0.00 69 1020.3
20211207191155 -3 229 3.2 16.1 0.00 0.00 0.00 69 1020.2
20211207190955 -3 174 4.8 16.1 0.00 0.00 0.00 69 1020.3
20211207190755 -3 244 3.2 16.1 0.00 0.00 0.00 69 1020.5
20211207190554 -3 245 3.2 16.1 0.00 0.00 0.00 70 1020.5
20211207190354 -3 190 3.2 16.1 0.00 0.00 0.00 69 1020.4
20211207190154 -3 191 3.2 11.3 0.00 0.00 0.00 70 1020.4
20211207185953 -3 193 3.2 11.3 0.00 0.00 0.00 70 1020.3
20211207185753 -3 221 3.2 11.3 0.00 0.00 0.00 70 1020.3
20211207185553 -3 188 3.2 11.3 0.00 0.00 0.00 70 1020.4
20211207185352 -3 174 3.2 11.3 0.00 0.00 0.00 70 1020.3
20211207185152 -3 199 1.6 12.9 0.00 0.00 0.00 71 1020.4
20211207184952 -3 201 1.6 12.9 0.00 0.00 0.00 71 1020.3
20211207184751 -3 166 1.6 12.9 0.00 0.00 0.00 72 1020.3
20211207184551 -3 169 3.2 12.9 0.00 0.00 0.00 71 1020.3
20211207184350 -3 191 4.8 12.9 0.00 0.00 0.00 71 1020.4
20211207184150 -3 186 3.2 12.9 0.00 0.00 0.00 71 1020.3
20211207183950 -3 121 1.6 16.1 0.00 0.00 0.00 72 1020.3
20211207183749 -3 174 3.2 16.1 0.00 0.00 0.00 72 1020.2
20211207183349 -3 260 3.2 16.1 0.00 0.00 0.00 72 1020.3
20211207183148 -3 230 3.2 16.1 0.00 0.00 0.00 72 1020.3
20211207182948 -3 257 3.2 14.5 0.00 0.00 0.00 72 1020.3
20211207182748 -3 234 1.6 14.5 0.00 0.00 0.00 72 1020.4
20211207182547 -3 228 3.2 14.5 0.00 0.00 0.00 72 1020.5
20211207182347 -3 243 1.6 14.5 0.00 0.00 0.00 73 1020.3
20211207182147 -3 205 1.6 9.7 0.00 0.00 0.00 74 1020.3
20211207181946 -3 233 3.2 9.7 0.00 0.00 0.00 73 1020.3
20211207181746 -3 214 3.2 9.7 0.00 0.00 0.00 73 1020.4
20211207181546 -3 192 3.2 8.0 0.00 0.00 0.00 73 1020.5
20211207181345 -3 209 1.6 8.0 0.00 0.00 0.00 74 1020.3
20211207181145 -3 208 1.6 8.0 0.00 0.00 0.00 74 1020.3
20211207180945 -3 187 1.6 8.0 0.00 0.00 0.00 75 1020.4
20211207180744 -3 207 1.6 9.7 0.00 0.00 0.00 74 1020.4
20211207180544 -3 216 1.6 9.7 0.00 0.00 0.00 74 1020.4
20211207180343 -3 232 1.6 9.7 0.00 0.00 0.00 74 1020.4
20211207180143 -3 222 3.2 9.7 0.00 0.00 0.00 74 1020.5
20211207175943 -3 207 3.2 11.3 0.00 0.00 0.00 74 1020.6
20211207175743 -3 251 1.6 12.9 0.00 0.00 0.00 75 1020.6
20211207175542 -3 197 1.6 12.9 0.00 0.00 0.00 74 1020.5
20211207175342 -3 189 3.2 12.9 0.00 0.00 0.00 74 1020.5
20211207175142 -3 235 4.8 12.9 0.00 0.00 0.00 74 1020.6
20211207174941 -3 229 4.8 12.9 0.00 0.00 0.00 74 1020.5
20211207174741 -3 246 3.2 9.7 0.00 0.00 0.00 75 1020.6
20211207174540 -3 244 1.6 11.3 0.00 0.00 0.00 75 1020.7
20211207174340 -3 233 1.6 11.3 0.00 0.00 0.00 75 1020.7
20211207174140 -3 209 3.2 11.3 0.00 0.00 0.00 75 1020.7
20211207173940 -3 203 4.8 11.3 0.00 0.00 0.00 75 1020.7
20211207173739 -3 158 3.2 22.5 0.00 0.00 0.00 74 1020.7
20211207173538 -3 203 3.2 22.5 0.00 0.00 0.00 74 1020.7
20211207173338 -3 236 4.8 22.5 0.00 0.00 0.00 74 1020.7
20211207173138 -3 254 8.0 22.5 0.00 0.00 0.00 73 1020.7
20211207172937 -3 205 6.4 22.5 0.00 0.00 0.00 72 1020.7
20211207172737 -3 192 4.8 16.1 0.00 0.00 0.00 74 1020.7
20211207172537 -3 244 6.4 12.9 0.00 0.00 0.00 74 1020.7
20211207172336 -3 250 4.8 12.9 0.00 0.00 0.00 73 1020.6
20211207172136 -2 238 4.8 11.3 0.00 0.00 0.00 70 1020.5
20211207171936 -2 234 3.2 11.3 0.00 0.00 0.00 68 1020.5
20211207171735 -2 217 3.2 11.3 0.00 0.00 0.00 68 1020.3
20211207171535 -2 196 3.2 11.3 0.00 0.00 0.00 67 1020.3
20211207171335 -2 249 3.2 14.5 0.00 0.00 0.00 67 1020.3
20211207171134 -2 244 3.2 14.5 0.00 0.00 0.00 67 1020.4
20211207170934 -2 224 3.2 14.5 0.00 0.00 0.00 68 1020.4
20211207170734 -2 228 4.8 14.5 0.00 0.00 0.00 68 1020.4
20211207170533 -2 177 3.2 14.5 0.00 0.00 0.00 67 1020.3
20211207170333 -2 229 4.8 14.5 0.00 0.00 0.00 67 1020.3
20211207170133 -2 256 4.8 16.1 0.00 0.00 0.00 66 1020.4
20211207165932 -2 243 4.8 16.1 0.00 0.00 0.00 67 1020.3
20211207165732 -2 220 4.8 16.1 0.00 0.00 0.00 67 1020.3
20211207165532 -2 250 6.4 16.1 0.00 0.00 0.00 67 1020.4
20211207165331 -2 240 6.4 16.1 0.00 0.00 0.00 67 1020.4
20211207165131 -2 213 3.2 14.5 0.00 0.00 0.00 68 1020.5
20211207164931 -2 238 3.2 14.5 0.00 0.00 0.00 67 1020.5
20211207164730 -2 236 4.8 14.5 0.00 0.00 0.00 66 1020.5
20211207164530 -2 201 3.2 11.3 0.00 0.00 0.00 67 1020.5
20211207164330 -2 232 1.6 11.3 0.00 0.00 0.00 67 1020.5
20211207164129 -2 201 1.6 8.0 0.00 0.00 0.00 67 1020.4
20211207163929 -2 175 1.6 8.0 0.00 0.00 0.00 67 1020.5
20211207163729 -2 216 1.6 16.1 0.00 0.00 0.00 68 1020.5
20211207163527 -2 264 3.2 16.1 0.00 0.00 0.00 67 1020.5
20211207163327 -2 231 1.6 16.1 0.00 0.00 0.00 66 1020.6
20211207163127 -2 190 3.2 16.1 0.00 0.00 0.00 66 1020.7
20211207162927 -3 251 4.8 16.1 0.00 0.00 0.00 66 1020.6
20211207162726 -3 254 3.2 12.9 0.00 0.00 0.00 66 1020.7
20211207162526 -3 243 4.8 11.3 0.00 0.00 0.00 66 1020.7
20211207162325 -3 230 4.8 16.1 0.00 0.00 0.00 66 1020.8
20211207162125 -3 229 4.8 17.7 0.00 0.00 0.00 66 1020.8
20211207161925 -3 200 4.8 17.7 0.00 0.00 0.00 66 1020.8
20211207161724 -3 243 6.4 17.7 0.00 0.00 0.00 65 1020.9
20211207161524 -3 219 6.4 17.7 0.00 0.00 0.00 65 1020.9
20211207161324 -3 192 4.8 17.7 0.00 0.00 0.00 66 1021.0
20211207161123 -3 224 3.2 14.5 0.00 0.00 0.00 66 1021.0
20211207160923 -3 212 3.2 14.5 0.00 0.00 0.00 66 1021.0
20211207160723 -3 209 4.8 14.5 0.00 0.00 0.00 66 1021.1
20211207160522 -3 205 4.8 14.5 0.00 0.00 0.00 66 1021.0
20211207160322 -3 201 3.2 12.9 0.00 0.00 0.00 66 1021.0
20211207160122 -3 218 4.8 12.9 0.00 0.00 0.00 66 1021.1
20211207155921 -2 220 4.8 20.9 0.00 0.00 0.00 66 1021.1
20211207155721 -2 219 1.6 20.9 0.00 0.00 0.00 67 1021.2
20211207155521 -2 224 3.2 20.9 0.00 0.00 0.00 67 1021.2
20211207155320 -2 193 4.8 20.9 0.00 0.00 0.00 67 1021.2
20211207155120 -2 183 3.2 20.9 0.00 0.00 0.00 67 1021.3
20211207154920 -3 214 3.2 12.9 0.00 0.00 0.00 67 1021.3
20211207154719 -3 241 3.2 12.9 0.00 0.00 0.00 66 1021.3
20211207154519 -3 224 1.6 14.5 0.00 0.00 0.00 67 1021.4
20211207154318 -3 235 3.2 14.5 0.00 0.00 0.00 67 1021.4
20211207154118 -3 257 4.8 14.5 0.00 0.00 0.00 67 1021.5
20211207153918 -3 239 6.4 14.5 0.00 0.00 0.00 66 1021.4
20211207153718 -3 231 3.2 14.5 0.00 0.00 0.00 67 1021.5
20211207153516 -3 213 4.8 11.3 0.00 0.00 0.00 66 1021.5
20211207153316 -3 218 3.2 11.3 0.00 0.00 0.00 66 1021.5
20211207153116 -3 238 1.6 11.3 0.00 0.00 0.00 66 1021.5
20211207152915 -3 222 3.2 11.3 0.00 0.00 0.00 65 1021.4
20211207152715 -3 214 3.2 11.3 0.00 0.00 0.00 66 1021.3
20211207152514 -3 214 3.2 11.3 0.00 0.00 0.00 65 1021.3
20211207152313 -3 214 4.8 11.3 0.00 0.00 0.00 64 1021.2
20211207152113 -3 191 6.4 12.9 0.00 0.00 0.00 64 1021.1
20211207151913 -3 214 4.8 12.9 0.00 0.00 0.00 65 1021.2
20211207151713 -3 227 3.2 12.9 0.00 0.00 0.00 65 1021.0
20211207151511 -3 196 3.2 12.9 0.00 0.00 0.00 65 1021.0
20211207151311 -3 170 3.2 12.9 0.00 0.00 0.00 65 1021.0
20211207151111 -3 214 4.8 14.5 0.00 0.00 0.00 65 1020.9
20211207150910 -3 222 3.2 14.5 0.00 0.00 0.00 64 1020.9
20211207150710 -3 155 1.6 14.5 0.00 0.00 0.00 64 1020.9
20211207150510 -3 96 3.2 14.5 0.00 0.00 0.00 64 1020.8
20211207150309 -3 82 1.6 14.5 0.00 0.00 0.00 65 1020.8
20211207150109 -3 182 1.6 8.0 0.00 0.00 0.00 66 1020.8
20211207145909 -3 220 1.6 8.0 0.00 0.08 0.00 64 1020.8
20211207145708 -3 127 1.6 8.0 0.00 0.08 0.00 65 1020.7
20211207145508 -3 211 3.2 11.3 0.00 0.08 0.00 65 1020.7
20211207145308 -3 208 1.6 11.3 0.00 0.08 0.00 65 1020.8
20211207145107 -3 147 1.6 12.9 0.00 0.08 0.00 65 1020.7
20211207144907 -3 188 3.2 12.9 0.00 0.08 0.00 65 1020.7
20211207144707 -3 154 1.6 12.9 0.00 0.08 0.00 65 1020.7
20211207144506 -3 171 3.2 12.9 0.00 0.08 0.00 65 1020.7
20211207144306 -3 190 3.2 12.9 0.00 0.08 0.00 65 1020.6
20211207144106 -3 253 0.0 11.3 0.00 0.08 0.00 66 1020.6
20211207143905 -3 192 1.6 9.7 0.00 0.08 0.00 67 1020.6